[[{"header":{"parameterUnit":"m.s-1","parameterCategory":1,"la1":30.2991,"la2":30.254,"lo1":-89.0895,"lo2":-89.0444,"dy":0.0017,"dx":0.0017,"nx":28,"ny":28,"refTime":"2023-09-05T03:00:00:Z","depth":0,"parameterNumber":2,"parameterNumberName":"U-component_of_WINDS"},"data":[0,0,0,0,0,0,0,0,0,0,0,0,0,0,0,0,0,0,0,0,0,0,0,0,0,0,0,0,0,0,0,0,0,0,0,0,0,0,0,0,0,0,0,0,0,0,0,0,0,0,0,0,0,0,0,0,0,0,-4.5618,-4.5619,0,-4.5747,-4.5749,-4.575,-4.5704,-4.5701,-4.5699,-4.5696,-4.5825,-4.5831,-4.5837,0,0,0,0,0,0,0,0,0,0,0,0,0,-4.5329,-4.5335,-4.5618,-4.5619,-4.5621,-4.5747,-4.5749,-4.575,-4.5705,-4.5701,-4.5698,-4.5695,-4.5823,-4.583,-4.5838,0,0,0,0,0,0,0,0,0,0,0,0,0,-4.5456,-4.5337,-4.5618,-4.5614,-4.5614,-4.5747,-4.5749,-4.5751,-4.5706,-4.5701,-4.5697,-4.5693,-4.5821,-4.583,-4.5839,-4.5982,0,0,-4.5867,-4.5871,0,0,0,0,0,0,0,0,-4.5449,-4.5467,-4.5613,-4.5614,-4.5615,-4.5705,-4.5694,-4.5828,-4.5707,-4.5671,-4.5696,-4.5691,-4.5789,-4.58,-4.5834,-4.5988,-4.5993,-4.5868,-4.5873,-4.5877,-4.588,0,0,0,0,0,0,0,-4.544,-4.5461,-4.5669,-4.5615,-4.5616,-4.5605,-4.5618,-4.5719,-4.5752,-4.5674,-4.5671,-4.5687,-4.5788,-4.5825,-4.5836,-4.5995,-4.5867,-4.5876,-4.5881,-4.5885,-4.6272,-4.6276,0,0,0,0,0,0,-4.5431,-4.5454,-4.5665,-4.5673,-4.552,-4.5613,-4.5628,-4.5681,-4.5751,-4.5758,-4.569,-4.5684,-4.5811,-4.5826,-4.5841,-4.6011,-4.5877,-4.5886,-4.5891,-4.6267,-4.6273,-4.6278,0,0,0,0,0,0,-4.5425,-4.545,-4.566,-4.5563,-4.5588,-4.5623,-4.5682,-4.5685,-4.5722,-4.5764,-4.5769,-4.5722,-4.5809,-4.5828,-4.5947,-4.6015,-4.589,-4.5898,-4.6261,-4.6269,-4.6275,-4.6354,0,0,0,0,0,0,-4.5417,-4.5448,-4.5503,-4.5564,-4.5594,-4.5764,-4.5687,-4.5691,-4.5738,-4.5731,-4.5794,-4.5801,-4.5807,-4.5933,-4.5956,-4.6025,-4.5905,-4.6255,-4.6265,-4.6273,-4.6345,-4.6362,-4.6378,0,0,0,0,0,-4.5407,-4.552,-4.5506,-4.5532,-4.5663,-4.5768,-4.5785,-4.579,-4.5744,-4.5799,-4.5826,-4.5799,-4.6005,-4.5946,-4.5971,-4.6044,-4.6251,-4.6262,-4.6272,-4.6338,-4.6359,-4.6377,0,0,0,0,0,0,-4.5465,-4.5528,-4.5513,-4.565,-4.5704,-4.576,-4.583,-4.5813,-4.5881,-4.5871,-4.5875,-4.5889,-4.6011,-4.604,-4.5974,-4.6186,-4.6121,-4.6137,-4.6162,-4.6182,-4.6198,-4.6187,-4.5913,0,0,0,0,0,-4.5494,-4.5575,-4.5625,-4.5741,-4.5769,-4.5795,-4.5841,-4.5841,-4.5897,-4.5919,-4.5954,-4.6009,-4.6086,-4.6136,-4.621,-4.635,-4.6362,-4.6413,-4.6429,-4.6442,-4.6455,-4.653,-4.6553,-4.6313,-4.6313,-4.6313,0,0,-4.5554,-4.5599,-4.5649,-4.5754,-4.5795,-4.5878,-4.5814,-4.5905,-4.5965,-4.5932,-4.6046,-4.6075,-4.6136,-4.6266,-4.6325,-4.6294,-4.6525,-4.6456,-4.6466,-4.6472,-4.6544,-4.6566,-4.6586,-4.632,-4.6319,-4.6318,0,0,-4.5705,-4.5748,-4.5848,-4.5892,-4.5957,-4.5974,-4.5998,-4.6057,-4.6075,-4.619,-4.6167,-4.6239,-4.6372,-4.6416,-4.6456,-4.6626,-4.6602,-4.665,-4.6733,-4.6806,-4.6825,-4.6842,-4.69,-4.6921,-4.6663,-4.6663,-4.6664,0,-4.5771,-4.5895,-4.5901,-4.5993,-4.6039,-4.6015,-4.6116,-4.6158,-4.6243,-4.6275,-4.6239,-4.6405,-4.6445,-4.6584,-4.6626,-4.666,-4.6686,-4.6641,-4.6822,-4.6839,-4.6855,-4.691,-4.6932,-4.6668,-4.6668,-4.6667,-4.6667,0,-4.5972,-4.6058,-4.6131,-4.6215,-4.627,-4.6366,-4.6386,-4.644,-4.6436,-4.6457,-4.6574,-4.6621,-4.6703,-4.6737,-4.6733,-4.6876,-4.6854,-4.6821,-4.6755,-4.6883,-4.6935,-4.6956,-4.6676,-4.6674,-4.6672,-4.6671,0,0,-4.616,-4.6247,-4.6273,-4.6311,-4.6381,-4.6448,-4.6543,-4.6624,-4.667,-4.6731,-4.6809,-4.6923,-4.6892,-4.6938,-4.6939,-4.7004,-4.7133,-4.6963,-4.6964,-4.699,-4.7291,-4.7313,-4.7338,-4.712,-4.7124,-4.7127,-4.7285,0,-4.6314,-4.6481,-4.649,-4.6641,-4.672,-4.67,-4.6782,-4.6834,-4.6857,-4.6926,-4.6951,-4.7031,-4.6986,-4.7013,-4.7077,-4.7104,-4.7193,-4.7093,-4.7191,-4.7194,-4.7173,-4.7366,-4.739,-4.7536,-4.7306,-4.7309,-4.7312,0,-4.6516,-4.6583,-4.6742,-4.6801,-4.6835,-4.6909,-4.6984,-4.7052,-4.711,-4.7122,-4.7174,-4.7166,-4.7263,-4.7197,-4.7329,-4.7261,-4.7302,-4.7322,-4.7327,-4.7334,-4.7258,-4.7375,-4.7583,-4.7604,-4.7344,-4.7342,-4.734,0,-4.6634,-4.6765,-4.6876,-4.6909,-4.6982,-4.7034,-4.7067,-4.7121,-4.7169,-4.7235,-4.7266,-4.7342,-4.7383,-4.7442,-4.7455,-4.7406,-4.7587,-4.7522,-4.7598,-4.7597,-4.7634,-4.763,-4.7849,-4.7666,-4.7665,-4.7665,-4.7664,0,-4.6804,-4.6901,-4.693,-4.6998,-4.7107,-4.7117,-4.7224,-4.7253,-4.7302,-4.7375,-4.7363,-4.7431,-4.7446,-4.7518,-4.7529,-4.7636,-4.7655,-4.7666,-4.7667,-4.7666,-4.7664,-4.769,-4.7679,-4.7671,-4.7669,-4.7668,-4.7667,0,-4.6952,-4.6976,-4.7096,-4.7155,-4.7173,-4.725,-4.73,-4.7365,-4.7387,-4.748,-4.7502,-4.7536,-4.762,-4.764,-4.774,-4.7747,-4.7873,-4.7866,-4.7853,-4.7852,-4.7925,-4.7917,-4.8165,-4.8197,-4.7996,-4.7998,-4.7999,0,-4.7057,-4.7132,-4.72,-4.7248,-4.7283,-4.7361,-4.7411,-4.7424,-4.7475,-4.7548,-4.7605,-4.7687,-4.7754,-4.7889,-4.7922,-4.7998,-4.7991,-4.8073,-4.8002,-4.7998,-4.7989,-4.7983,-4.799,-4.8085,-4.8087,-4.8089,-4.809,0,-4.7241,-4.7249,-4.732,-4.7397,-4.7456,-4.7517,-4.7575,-4.7615,-4.7636,-4.7695,-4.7781,-4.7833,-4.7935,-4.8017,-4.8094,-4.8126,-4.8112,-4.8113,-4.8134,-4.8131,-4.812,-4.8124,-4.7887,-4.8106,-4.8105,-4.8103,-4.8103,-4.8102,-4.7369,-4.7434,-4.7491,-4.7572,-4.7617,-4.7671,-4.7735,-4.7766,-4.7838,-4.7922,-4.7926,-4.8019,-4.8076,-4.8178,-4.8216,-4.8288,-4.8263,-4.8294,-4.8301,-4.8308,-4.8313,-4.8111,-4.8303,-4.8302,-4.8302,-4.8302,-4.8301,0,-4.7549,-4.7586,-4.766,-4.7741,-4.7804,-4.7787,-4.785,-4.7904,-4.7986,-4.8041,-4.8107,-4.8205,-4.8285,-4.8325,-4.8404,-4.8454,-4.8449,-4.8474,-4.8469,-4.8477,-4.8333,-4.8305,-4.8477,-4.8477,-4.8477,-4.8477,-4.8477,-4.8477,-4.765,-4.7758,-4.7774,-4.7904,-4.794,-4.8031,-4.8069,-4.8119,-4.8162,-4.8273,-4.8339,-4.8365,-4.8414,-4.8497,-4.8569,-4.8578,-4.8607,-4.8635,-4.8641,-4.8505,-4.8487,-4.847,-4.8444,-4.8641,-4.8642,-4.8778,-4.8779,-4.878]},{"header":{"parameterUnit":"m.s-1","parameterCategory":1,"la1":30.2991,"la2":30.254,"lo1":-89.0895,"lo2":-89.0444,"dy":0.0017,"dx":0.0017,"nx":28,"ny":28,"refTime":"2023-09-05T03:00:00:Z","depth":0,"parameterNumber":3,"parameterNumberName":"V-component_of_WINDS"},"data":[0,0,0,0,0,0,0,0,0,0,0,0,0,0,0,0,0,0,0,0,0,0,0,0,0,0,0,0,0,0,0,0,0,0,0,0,0,0,0,0,0,0,0,0,0,0,0,0,0,0,0,0,0,0,0,0,0,0,2.5148,2.5149,0,2.5207,2.5208,2.5208,2.5152,2.515,2.5148,2.5146,2.5202,2.5205,2.5209,0,0,0,0,0,0,0,0,0,0,0,0,0,2.4985,2.4988,2.5148,2.5149,2.515,2.5207,2.5208,2.5208,2.5153,2.515,2.5147,2.5145,2.5201,2.5205,2.5209,0,0,0,0,0,0,0,0,0,0,0,0,0,2.5051,2.4989,2.5148,2.5129,2.5128,2.5207,2.5208,2.5209,2.5153,2.515,2.5147,2.5144,2.5199,2.5204,2.521,2.5309,0,0,2.5226,2.5228,0,0,0,0,0,0,0,0,2.5047,2.5057,2.5131,2.5131,2.5129,2.5169,2.517,2.5242,2.5154,2.5144,2.5146,2.5142,2.5193,2.5199,2.5217,2.5312,2.5314,2.5226,2.523,2.5232,2.5233,0,0,0,0,0,0,0,2.5043,2.5054,2.5171,2.5132,2.5131,2.5116,2.5122,2.5184,2.5186,2.5144,2.514,2.5148,2.5192,2.5212,2.5218,2.5315,2.5226,2.5231,2.5234,2.5236,2.5493,2.5497,0,0,0,0,0,0,2.5041,2.5051,2.5169,2.5173,2.5079,2.5122,2.5128,2.516,2.5185,2.5186,2.5151,2.5145,2.5205,2.5212,2.522,2.5337,2.5232,2.5237,2.524,2.549,2.5494,2.5498,0,0,0,0,0,0,2.5037,2.5052,2.5167,2.5111,2.5124,2.5128,2.5164,2.5162,2.5182,2.5191,2.519,2.5171,2.5202,2.5212,2.5287,2.5338,2.5239,2.5244,2.5485,2.5491,2.5496,2.5573,0,0,0,0,0,0,2.5033,2.5051,2.509,2.5112,2.5128,2.5235,2.5167,2.5166,2.5192,2.5185,2.5209,2.521,2.52,2.528,2.5293,2.5344,2.5248,2.5481,2.5488,2.5494,2.5566,2.558,2.5593,0,0,0,0,0,2.5027,2.5108,2.5092,2.5106,2.5176,2.5238,2.5247,2.5235,2.5197,2.5235,2.524,2.5209,2.5331,2.5288,2.5302,2.5355,2.5477,2.5486,2.5494,2.556,2.5578,2.5593,0,0,0,0,0,0,2.509,2.5111,2.5093,2.5184,2.521,2.5229,2.5276,2.5254,2.5291,2.5283,2.5266,2.5271,2.5351,2.5361,2.5312,2.5453,2.5398,2.5409,2.5443,2.546,2.5473,2.5469,2.5253,0,0,0,0,0,2.5114,2.5164,2.5179,2.5258,2.5272,2.5273,2.5299,2.5288,2.5314,2.5324,2.5335,2.536,2.5403,2.5432,2.5473,2.5568,2.5571,2.5611,2.5625,2.5636,2.5645,2.5695,2.5713,2.5525,2.5525,2.5524,0,0,2.5165,2.5183,2.5215,2.5271,2.529,2.5341,2.5282,2.5338,2.5375,2.5332,2.5404,2.5413,2.5439,2.5525,2.5563,2.5535,2.5698,2.5646,2.5655,2.5658,2.5705,2.5723,2.5739,2.553,2.5529,2.5528,0,0,2.5283,2.5303,2.537,2.5391,2.5421,2.542,2.5437,2.5459,2.5464,2.5536,2.5505,2.5548,2.5624,2.5644,2.5665,2.5792,2.5764,2.5806,2.5875,2.5924,2.5939,2.5952,2.5996,2.6012,2.5815,2.5816,2.5816,0,2.5342,2.5419,2.5407,2.5466,2.5491,2.5456,2.5524,2.5544,2.5585,2.5602,2.5572,2.5667,2.5682,2.5771,2.5802,2.582,2.5837,2.5802,2.5938,2.5951,2.5963,2.6005,2.6022,2.582,2.582,2.5819,2.5819,0,2.5489,2.5543,2.5594,2.5636,2.5667,2.573,2.5726,2.5759,2.5746,2.5748,2.5822,2.584,2.5883,2.5904,2.5891,2.5991,2.5973,2.5941,2.5885,2.5986,2.6025,2.6041,2.5827,2.5825,2.5824,2.5823,0,0,2.5647,2.5683,2.5702,2.572,2.5751,2.5792,2.5853,2.5897,2.5925,2.5955,2.6005,2.607,2.6041,2.6064,2.6053,2.6096,2.6194,2.6058,2.6058,2.6082,2.6305,2.6328,2.6347,2.6177,2.618,2.6183,2.6302,0,2.5765,2.5873,2.5864,2.5965,2.6014,2.5982,2.6035,2.6059,2.6064,2.6105,2.6109,2.6155,2.6113,2.6127,2.6168,2.6174,2.6239,2.6165,2.6222,2.6224,2.6215,2.6368,2.6393,2.6505,2.6318,2.632,2.6322,0,2.5918,2.5955,2.6061,2.6085,2.6105,2.6153,2.6192,2.6233,2.6259,2.6259,2.6286,2.6268,2.6328,2.6272,2.6354,2.6304,2.6327,2.6333,2.6337,2.6341,2.6278,2.6374,2.654,2.6556,2.6346,2.6344,2.6343,0,2.6021,2.6097,2.617,2.6187,2.6217,2.6252,2.6265,2.6289,2.6316,2.635,2.6367,2.6408,2.643,2.6461,2.6454,2.6415,2.6538,2.6482,2.6538,2.6539,2.6564,2.6562,2.6735,2.6582,2.6581,2.6581,2.6581,0,2.6153,2.6219,2.6217,2.6262,2.6335,2.6324,2.6396,2.6405,2.6427,2.6472,2.6447,2.6489,2.6478,2.652,2.6515,2.6583,2.6593,2.6594,2.6592,2.6596,2.6595,2.6609,2.6601,2.6586,2.6585,2.6584,2.6583,0,2.628,2.6282,2.6359,2.6382,2.6389,2.6442,2.646,2.6502,2.6505,2.6562,2.6575,2.6579,2.6627,2.6624,2.6678,2.6674,2.6758,2.6747,2.675,2.6747,2.6803,2.6798,2.6989,2.7013,2.6846,2.6848,2.6849,0,2.6364,2.6414,2.6443,2.6472,2.6489,2.6536,2.6564,2.6555,2.6585,2.6619,2.6657,2.6703,2.674,2.6818,2.6825,2.6866,2.6855,2.6919,2.686,2.6863,2.6854,2.6851,2.6855,2.693,2.6932,2.6934,2.6935,0,2.6512,2.6511,2.6553,2.6596,2.663,2.6663,2.6692,2.6717,2.6712,2.6747,2.6796,2.6825,2.6881,2.6926,2.6966,2.6978,2.6955,2.6954,2.6969,2.6972,2.6971,2.6972,2.678,2.6949,2.6947,2.6946,2.6946,2.6945,2.6619,2.6662,2.6689,2.6737,2.6759,2.6788,2.6828,2.6837,2.6878,2.6924,2.6916,2.6972,2.6997,2.7047,2.7064,2.7106,2.7083,2.7105,2.711,2.7116,2.7122,2.6966,2.7114,2.7113,2.7113,2.7112,2.7112,0,2.6765,2.6782,2.6826,2.6869,2.6906,2.6883,2.6915,2.6947,2.6997,2.7023,2.706,2.7117,2.7161,2.7172,2.7215,2.7246,2.7237,2.7258,2.7254,2.7258,2.7141,2.7123,2.7265,2.7265,2.7265,2.7265,2.7265,2.7265,2.6846,2.6917,2.6919,2.7001,2.7016,2.7071,2.7091,2.7117,2.7138,2.7203,2.724,2.7248,2.7267,2.7311,2.735,2.7352,2.7368,2.7393,2.7391,2.7281,2.7266,2.7251,2.7234,2.7397,2.7397,2.7504,2.7505,2.7506]}]]